Printer-friendly version

IAU Minor Planet Center

Minor Planet Center

MPEC 2006-H17 : 2006 FH51

The following Minor Planet Electronic Circular may be linked-to from your own Web pages, but must not otherwise be redistributed electronically.


Read MPEC 2006-H16 Read MPEC 2006-H18


M.P.E.C. 2006-H17                                Issued 2006 Apr. 20, 22:50 UT

     The Minor Planet Electronic Circulars contain information on unusual
         minor planets and routine data on comets.  They are published
   on behalf of Commission 20 of the International Astronomical Union by the
          Minor Planet Center, Smithsonian Astrophysical Observatory,
                          Cambridge, MA 02138, U.S.A.

                  Supported in part by the Brinson Foundation
                  Supported in part by the TABASGO Foundation
             Prepared using the Tamkin Foundation Computer Network

                              MPC@CFA.HARVARD.EDU
          URL http://cfa-www.harvard.edu/iau/mpc.html  ISSN 1523-6714

                                   2006 FH51

Observations:
     K06F51H* C2006 03 26.41305 14 50 53.81 +00 03 15.9          19.0 R EH017699
     K06F51H  C2006 03 26.43492 14 50 55.22 +00 03 35.5                 EH017699
     K06F51H  C2006 03 26.45679 14 50 56.72 +00 03 55.9                 EH017699
     K06F51H  C2006 03 26.47867 14 50 58.07 +00 04 14.2                 EH017699
     K06F51H  C2006 04 20.39286 15 11 55.24 +06 50 42.9          18.9 V EH017703
     K06F51H  C2006 04 20.40098 15 11 55.50 +06 50 51.2          18.6 V EH017703
     K06F51H  C2006 04 20.40906 15 11 55.68 +06 50 58.8          18.2 V EH017703
     K06F51H  C2006 04 20.41715 15 11 55.89 +06 51 06.1          18.6 V EH017703
     K06F51H  C2006 04 20.42978 15 11 56.29 +06 51 18.0          18.6 V EH017703
     K06F51H  C2006 04 20.43891 15 11 56.54 +06 51 26.6          18.5 V EH017703
     K06F51H  C2006 04 20.44806 15 11 56.79 +06 51 35.2          18.6 V EH017703
     K06F51H  C2006 04 20.45723 15 11 57.08 +06 51 44.3          18.5 V EH017703
     K06F51H  C2006 04 20.72584 15 12 05.72 +06 56 15.2          18.6 V EH017E12
     K06F51H  C2006 04 20.72825 15 12 05.83 +06 56 18.0          18.9 V EH017E12
     K06F51H  C2006 04 20.73064 15 12 05.90 +06 56 20.2          19.0 V EH017E12
     K06F51H  C2006 04 20.73303 15 12 05.97 +06 56 21.8          18.7 V EH017E12
     K06F51H  C2006 04 20.88063 15 12 11.69 +06 58 23.1                 EH017595
     K06F51H  C2006 04 20.90007 15 12 12.25 +06 58 40.9          18.6   EH017595
     K06F51H  C2006 04 20.90988 15 12 12.63 +06 58 50.7          18.4 V EH017A13
     K06F51H  C2006 04 20.91951 15 12 12.83 +06 58 59.8                 EH017595
     K06F51H  C2006 04 20.92694 15 12 13.09 +06 59 06.4          18.3 V EH017A13
     K06F51H  C2006 04 20.94295 15 12 13.53 +06 59 21.7          18.3 V EH017A13

Observer details:
595 Farra d'Isonzo.  Observers G. Lombardi, E. Pettarin.  0.40-m f/4.5
    reflector + CCD.
699 Lowell Observatory-LONEOS.  Observer M. E. Van Ness.  0.59-m LONEOS
    Schmidt + CCD.
703 Catalina Sky Survey.  Observer R. E. Hill.  Measurers E. C. Beshore,
    E. J. Christensen, G. J. Garradd, A. R. Gibbs, A. D. Grauer, R. E. Hill,
    R. A. Kowalski, S. M. Larson, R. H. McNaught.  0.68-m Schmidt + CCD.
A13 Observatoire Naef, Marly.  Observer P. Kocher.  0.5-m f/3.3 Hypergraph
    + CCD.
E12 Siding Spring Survey.  Observer R. H. McNaught.  Measurers E. C. Beshore,
    E. J. Christensen, G. J. Garradd, A. R. Gibbs, A. D. Grauer, R. E. Hill,
    R. A. Kowalski, S. M. Larson, R. H. McNaught.  0.5-m Uppsala Schmidt + CCD.

Orbital elements:
2006 FH51
Epoch 2006 Mar. 6.0 TT = JDT 2453800.5                  MPC
M 347.80029              (2000.0)            P               Q
n   0.16037663     Peri.   75.11063     -0.56591006     +0.82205899
a   3.3551246      Node   160.02972     -0.80943250     -0.53944925
e   0.5498084      Incl.   10.62414     -0.15673172     -0.18224576
P   6.15           H   17.9           G   0.15           U   7
Residuals in seconds of arc
060326 699  0.6-  0.4-    060420 703  0.2+  0.2-    060420 595  0.2-  0.3+
060326 699  0.5-  0.2-    060420 703  0.2+  0.2-    060420 595  0.2-  0.4-
060326 699  1.0+  0.8+    060420 703  0.1+  0.3-    060420 A13  0.5+  0.3+
060326 699  0.1+  0.2-    060420 703  0.6+  0.1+    060420 595  0.2+  0.0
060420 703  0.3-  0.2-    060420 E12  0.6-  0.1-    060420 A13  0.1+  0.2-
060420 703  0.2+  0.4+    060420 E12  0.0   0.4+    060420 A13  0.1-  0.1-
060420 703  0.4-  0.3+    060420 E12  0.1+  0.4+
060420 703  0.6-  0.1-    060420 E12  0.2+  0.3-

Ephemeris:
2006 FH51                a,e,i = 3.36, 0.55, 11                  q = 1.5105
Date    TT    R. A. (2000) Decl.     Delta      r     Elong.  Phase     V
2006 04 15    15 08.66   +05 22.6    0.598    1.556   151.6    17.8    18.7
2006 04 25    15 14.20   +08 01.3    0.567    1.534   153.5    17.0    18.5
2006 05 05    15 17.82   +10 06.9    0.551    1.520   152.7    17.7    18.4
2006 05 15    15 20.52   +11 19.5    0.550    1.512   149.9    19.6    18.5
2006 05 25    15 23.37   +11 28.9    0.561    1.511   146.0    22.0    18.6
2006 06 04    15 27.41   +10 34.5    0.585    1.517   141.7    24.5    18.8
2006 06 14    15 33.45   +08 45.4    0.620    1.531   137.4    26.7    19.0
2006 06 24    15 41.76   +06 15.7    0.666    1.551   133.2    28.5    19.2
2006 07 04    15 52.41   +03 20.4    0.724    1.577   129.1    30.0    19.5
2006 07 14    16 05.23   +00 14.2    0.794    1.609   125.0    31.2    19.8
2006 07 24    16 19.90   -02 51.1    0.875    1.646   120.8    32.0    20.1
2006 08 03    16 36.16   -05 46.9    0.969    1.688   116.6    32.5    20.3
2006 08 13    16 53.70   -08 27.1    1.074    1.734   112.3    32.7    20.6
2006 08 23    17 12.23   -10 48.1    1.190    1.783   107.9    32.7    20.9
2006 09 02    17 31.53   -12 48.1    1.317    1.835   103.4    32.3    21.2
2006 09 12    17 51.38   -14 26.6    1.454    1.890    98.8    31.8    21.4
2006 09 22    18 11.57   -15 44.0    1.599    1.947    94.0    31.0    21.7
2006 10 02    18 31.96   -16 41.3    1.752    2.005    89.1    30.0    21.9

Timothy B. Spahr             (C) Copyright 2006 MPC           M.P.E.C. 2006-H17

Read MPEC 2006-H16 Read MPEC 2006-H18


Our Web policy. Index to the CBAT/MPC/ICQ pages.


Valid HTML 4.01!